Location: Hopewell Observatory
(38.8698°N, 77.6988°W)
Time: 08:15:45
(UTC-04:00)

Daily predictions for brighter satellites

Satellite Brightness Start Highest point End
(mag) Time Altitude Azimuth Time Altitude Azimuth Time Altitude Azimuth
NOSS 3-2 (A) 3.6 19:19:45 10° SSW 19:25:34 54° ESE 19:31:52 10° NE
DMSP B5D1-3 4.5 19:20:48 10° NNE 19:25:54 74° ESE 19:30:59 10° S
Meteor 1-22 Rocket 4.2 19:20:48 10° S 19:26:00 52° E 19:31:07 10° NNE
Cosmos 2278 Rocket 2.4 19:21:01 10° NNW 19:26:41 80° WSW 19:32:19 10° SSE
COSMO-SKYMED 1 2.8 19:22:36 10° N 19:26:57 81° WNW 19:31:17 10° SSW
Cosmos 1441 Rocket 3.2 19:23:25 10° N 19:27:10 83° W 19:30:54 10° S
Cosmos 1378 3.7 19:26:04 10° N 19:29:32 35° ENE 19:32:58 10° SE
ALOS 3.8 19:27:41 10° ESE 19:30:42 17° ENE 19:33:45 10° NNE
OAO 3 Rocket 3.8 19:26:16 10° WSW 19:30:48 45° SSE 19:35:25 10° E
USA 238 DEB 4.3 19:24:12 10° SW 19:31:11 63° NW 19:38:11 10° NNE
USA 238 4.3 19:24:17 10° SW 19:31:17 64° NW 19:38:17 10° NNE
ATLAS CENTAUR R/B 3.4 19:27:04 10° SSW 19:31:24 60° ESE 19:44:20 10° NE
Cosmos 2297 3.8 19:25:56 10° NNW 19:31:31 55° ENE 19:37:01 10° SE
Meteor 1-28 Rocket 3.4 19:28:52 10° NNE 19:32:30 48° E 19:36:05 10° S
CZ-4C R/B 3.2 19:29:07 10° SW 19:34:14 50° NW 19:40:03 10° NNE
Meteor 2-5 Rocket 4.1 19:31:13 10° NNW 19:36:49 69° W 19:42:18 10° S
Meteor 1-24 Rocket 3.7 19:31:43 10° N 19:37:22 68° E 19:42:46 10° SSE
Cosmos 1707 3.2 19:35:50 10° NNW 19:39:40 65° W 19:43:27 10° S
Cosmos 2034 Rocket 4.4 19:38:00 10° SSE 19:43:46 41° E 19:49:36 10° NNE
Cosmos 2369 Rocket 4.1 19:42:58 10° NNE 19:44:50 11° NE 19:46:41 10° ENE
SAR-Lupe-4 3.6 19:41:24 10° SSE 19:44:58 84° WSW 19:48:34 10° NNW
Cosmos 1464 Rocket 4.0 19:40:07 10° S 19:46:14 59° E 19:52:18 10° NNE
SJ-6B 2.8 19:42:23 10° SSE 19:46:19 80° ENE 19:50:23 10° N
Cosmos 1766 Rocket 4.1 19:43:20 10° N 19:47:24 36° ENE 19:51:24 10° SE
Cosmos 1603 4.5 19:42:50 10° SSE 19:47:43 30° ESE 19:52:39 10° NE
FREGAT/IRIS 2.6 19:45:13 10° SSE 19:48:16 63° ENE 19:51:21 10° N
Timation 1 Rocket 4.5 19:42:39 10° NNW 19:48:31 56° ENE 19:54:21 10° SE
Cosmos 1437 3.3 19:48:08 10° NNW 19:51:22 61° W 19:54:35 10° S
Cosmos 1758 3.8 19:51:50 10° SSE 19:55:38 39° E 19:59:28 10° NNE
Cosmos 2333 Rocket 4.3 19:54:25 10° WSW 19:59:26 30° WNW 20:04:28 10° N
Spot 2 Rocket 3.4 19:56:25 10° SSE 20:01:24 66° ENE 20:06:24 10° N
NOSS 3-2 (C) 3.4 19:57:07 10° SSW 20:03:08 81° ESE 20:09:42 10° NE
CENTAUR R/B 3.6 19:59:15 10° SSE 20:03:25 20° ESE 20:05:41 17° E
FengYun 1-2 T 4.3 19:58:14 10° SSE 20:03:34 54° ENE 20:08:54 10° N
Cosmos 1076 Rocket 3.4 20:00:03 10° N 20:04:23 71° E 20:08:42 10° SSE
GPS 2-04 Rocket1 4.2 20:03:24 10° SSW 20:05:49 17° SSE 20:06:26 17° SE
ASTEX 1 4.1 20:01:46 10° NNE 20:06:08 31° E 20:10:27 10° SSE
Helios 1B rocket 2.3 20:02:36 10° NNE 20:06:44 72° ESE 20:10:49 10° S
Cosmos 2056 Rocket 4.1 20:01:28 10° NNW 20:06:52 64° WSW 20:12:11 10° S
Cosmos-2242 3.2 20:03:45 10° SSE 20:07:57 49° E 20:12:12 10° NNE
SL-8 R/B 4.4 20:05:18 10° SSW 20:09:36 34° SE 20:11:41 23° E
In-Cosmos 22 4.2 20:09:21 10° N 20:15:09 75° E 20:20:53 10° SSE
Cosmos 1674 3.9 20:14:10 10° NNE 20:16:58 24° ENE 20:16:58 24° ENE
Cosmos 1842 Rocket 4.3 20:18:06 29° ESE 20:18:39 30° E 20:22:26 10° NNE
Meteor 1-21 Rocket 4.2 20:14:57 10° N 20:20:27 60° ENE 20:25:53 10° SSE
Atlas Centaur 2 4.1 20:12:58 10° W 20:20:32 36° SSW 20:26:10 15° SE
Cosmos 1500 Rocket 4.4 20:17:43 10° NNE 20:21:38 30° ENE 20:21:56 30° E
Cosmos 1408 Rocket 3.5 20:17:50 10° N 20:22:13 83° W 20:26:31 10° S
ASTRO E2 4.0 20:18:53 10° WSW 20:22:21 28° S 20:23:32 24° SSE
Cosmos 1346 4.0 20:26:07 10° N 20:28:07 34° NNE 20:28:07 34° NNE
ATLAS CENTAUR R/B 3.6 20:26:19 10° WNW 20:29:33 23° WSW 20:32:35 10° SSW
Abrixas 3.9 20:28:30 10° SSW 20:30:15 27° S 20:30:15 27° S
Resurs 01 Rocket 2.2 20:27:17 10° S 20:31:41 59° W 20:36:05 10° NNW
ATLAS 5 CENTAUR R/B 2.1 20:28:22 10° SW 20:33:06 68° NW 20:38:14 10° NNE
Resurs 1-3 3.7 20:28:53 10° S 20:33:15 74° WSW 20:37:39 10° NNW
USA 215 3.7 20:33:03 10° NE 20:39:30 62° NW 20:45:54 10° WSW
CZ-2D R/B 3.1 20:43:00 54° SSE 20:43:49 80° ENE 20:47:44 10° N
SL-16 R/B 3.9 20:39:24 10° WSW 20:44:32 34° WNW 20:49:41 10° N
Meteor 1-29 4.5 20:41:46 10° N 20:45:04 38° WNW 20:48:19 10° SW
Cosmos 1743 Rocket 3.5 20:45:20 10° N 20:49:48 88° W 20:51:26 39° S
Gbstr 26 Del rocket 4.3 20:46:01 10° SSW 20:48:32 29° S 20:48:32 29° S
Cosmos 1953 3.6 20:46:40 10° SSW 20:50:27 40° WNW 20:54:13 10° N
ISS -0.7 20:49:11 10° SSW 20:49:30 12° SSW 20:49:30 12° SSW
ERS-1 Rocket 3.9 20:54:53 32° NE 20:54:53 32° NE 20:58:25 10° N
Nadezhda 4 Rocket 4.0 20:51:28 10° N 20:57:46 79° W 21:03:57 10° S
SeaSat 1 2.3 20:54:52 10° NNE 20:59:50 82° ESE 21:04:46 10° SSW
BREEZE-M DEB (TANK) 3.9 20:49:25 10° WNW 21:00:55 47° N 21:02:28 36° NE
H-2A R/B 3.2 21:01:10 54° SW 21:01:43 61° W 21:05:35 10° NNW
GP-B 3.7 20:58:11 10° N 21:01:21 44° NNE 21:01:21 44° NNE
Cosmos 1452 Rocket 4.5 20:58:29 10° NNW 21:03:29 45° WSW 21:07:29 15° S
Cosmos 1092 Rocket 3.8 20:57:31 10° N 21:03:47 84° E 21:06:37 35° S
Cosmos 1544 4.5 21:00:43 10° SSW 21:04:14 39° WNW 21:07:46 10° N
Cosmos 2142 Rocket 4.4 21:02:43 28° SSE 21:06:15 67° E 21:12:36 10° NNE
CZ-4B DEB 4.5 21:06:22 32° WSW 21:06:32 32° W 21:09:31 10° NNW
ALOS 3.2 21:04:18 16° SSW 21:07:46 46° W 21:12:16 10° NNW
Cosmos 839 Rocket 4.4 21:00:25 10° NNW 21:07:53 50° NE 21:08:43 48° ENE
FENGYUN 3A 4.4 21:06:43 13° S 21:11:22 51° W 21:16:37 10° NNW
SEDSat Delta rocket 4.5 21:05:07 10° WSW 21:11:30 44° S 21:12:12 43° SSE
OAO 3 Rocket 3.8 21:09:24 10° W 21:13:21 48° SW 21:13:21 48° SW
Cosmos 1634 Rocket 3.8 21:10:39 11° S 21:16:44 86° E 21:22:59 10° N
Cosmos 2026 Rocket 4.0 21:13:22 10° N 21:18:46 58° NE 21:18:46 58° NE
Cosmos 2369 Rocket 2.4 21:24:11 10° NNW 21:28:55 60° N 21:28:55 60° N
Cosmos 1943 Rocket 3.6 21:32:21 10° N 21:35:15 26° NNE 21:35:15 26° NNE
Cosmos 2195 Rocket 4.5 21:34:39 10° N 21:40:59 78° W 21:41:05 78° WSW
Envisat 4.3 21:53:17 34° NNW 21:53:17 34° NNW 21:56:11 10° NNW
CENTAUR R/B 2.7 21:47:15 10° SW 21:59:44 11° NNE 22:00:01 10° NNE
